Weather History for Rock Hill, SC

Change the Weather History Date:

Thursday, January 17, 2013

  Actual Average Record
Temperature  
Mean Temperature 45 °F -  
Max Temperature 53 °F 50 °F 77 °F (1949)
Min Temperature 36 °F 29 °F 5 °F (1977)
Degree Days  
Heating Degree Days 20    
Moisture  
Dew Point 46 °F    
Average Humidity 97    
Maximum Humidity 100    
Minimum Humidity 89    
Precipitation  
Precipitation 2.05 in - - ()
Sea Level Pressure  
Sea Level Pressure 29.94 in    
Wind  
Wind Speed 5 mph (NNE)    
Max Wind Speed 18 mph    
Max Gust Speed 34 mph    
Visibility 4 miles    
Events Rain    
Averages and records for this station are not official NWS values.
T = Trace of Precipitation, MM = Missing Value Source: NWS Daily Summary

Daily Weather History Graph

Daily Weather History Graph

Search for Another Location

Airport:

Trip Planner

Search our weather history database for the weather conditions in past years. The results will help you decide how hot, cold, wet, or windy it might be!

Date:

Astronomy

Jan. 17, 2013 Rise Set
Actual Time 7:31 AM EST 5:38 PM EST
Civil Twilight 7:03 AM EST 6:05 PM EST
Nautical Twilight 6:32 AM EST 6:36 PM EST
Astronomical Twilight 6:02 AM EST 7:06 PM EST
Moon 10:54 AM EST (1/17) No Moon Set
Length of Visible Light 11h 01m
Length of Day
10h 07m
Waxing Crescent, 37% of the Moon is Illuminated
Jan 17
Waxing Crescent
Jan 18
First Quarter
Jan 26
Full
Feb 3
Last Quarter
Feb 10
New

Hourly Weather History & Observations

Time (EST) Temp. Windchill Dew Point Humidity Pressure Visibility Wind Dir Wind Speed Gust Speed Precip Events Conditions
12:02 AM 51.1 °F - 50.0 °F 96% 29.99 in 2.5 mi NNE 3.5 mph - 0.01 in Rain Rain
12:11 AM 51.1 °F - 50.0 °F 96% 29.98 in 2.5 mi North 4.6 mph - 0.02 in Rain Rain
12:29 AM 51.1 °F - 51.1 °F 100% 29.98 in 2.5 mi Calm Calm - 0.05 in Rain Light Rain
12:40 AM 51.1 °F - 51.1 °F 100% 29.98 in 3.0 mi Calm Calm - 0.05 in Rain Light Rain
12:54 AM 51.1 °F - 51.1 °F 100% 29.98 in 3.0 mi Calm Calm - 0.05 in Rain Light Rain
1:05 AM 51.1 °F - 51.1 °F 100% 29.98 in 4.0 mi North 3.5 mph - 0.01 in Rain Light Rain
1:26 AM 51.1 °F - 51.1 °F 100% 29.98 in 5.0 mi Calm Calm - 0.01 in   Overcast
1:54 AM 51.1 °F - 51.1 °F 100% 29.97 in 6.0 mi Calm Calm - 0.01 in Rain Light Rain
2:07 AM 51.1 °F - 51.1 °F 100% 29.97 in 7.0 mi Calm Calm - 0.00 in   Overcast
2:39 AM 52.0 °F - 51.1 °F 97% 29.97 in 3.0 mi Calm Calm - 0.03 in Rain Light Rain
2:46 AM 51.1 °F - 51.1 °F 100% 29.97 in 3.0 mi Calm Calm - 0.03 in Rain Light Rain
2:54 AM 52.0 °F - 51.1 °F 97% 29.96 in 3.0 mi Calm Calm - 0.04 in Rain Light Rain
3:54 AM 52.0 °F - 52.0 °F 100% 29.95 in 5.0 mi Calm Calm - 0.01 in Rain Light Rain
4:29 AM 52.0 °F - 52.0 °F 100% 29.95 in 5.0 mi Calm Calm - 0.00 in Rain Light Rain
4:54 AM 52.0 °F - 52.0 °F 100% 29.94 in 2.5 mi Calm Calm - 0.01 in Rain Rain
5:10 AM 52.0 °F - 51.1 °F 97% 29.94 in 2.0 mi Calm Calm - 0.01 in Rain Light Rain
5:37 AM 52.0 °F - 51.1 °F 97% 29.94 in 3.0 mi Calm Calm - 0.05 in Rain Light Rain
5:51 AM 51.8 °F - 51.8 °F 100% 29.93 in 2.5 mi Calm Calm - 0.06 in Rain Light Rain
5:54 AM 52.0 °F - 52.0 °F 100% 29.93 in 2.5 mi Calm Calm - 0.07 in Rain Light Rain
6:54 AM 52.0 °F - 52.0 °F 100% 29.95 in 2.5 mi NNE 3.5 mph - 0.16 in Rain Rain
7:03 AM 52.0 °F - 52.0 °F 100% 29.95 in 4.0 mi NNE 3.5 mph - 0.01 in Rain Rain
7:20 AM 52.0 °F - 52.0 °F 100% 29.94 in 4.0 mi Variable 3.5 mph - 0.02 in Rain Light Rain
7:49 AM 51.8 °F - 51.8 °F 100% 29.96 in 1.8 mi NE 4.6 mph - 0.06 in Rain Light Rain
7:54 AM 52.0 °F - 52.0 °F 100% 29.96 in 1.2 mi NE 4.6 mph - 0.08 in Rain Heavy Rain
8:12 AM 53.1 °F - 52.0 °F 96% 29.95 in 2.0 mi ENE 4.6 mph - 0.02 in Rain Light Rain
8:20 AM 52.0 °F - 52.0 °F 100% 29.96 in 1.0 mi Variable 4.6 mph - 0.06 in Rain Rain
8:42 AM 52.0 °F - 52.0 °F 100% 29.96 in 1.5 mi NE 6.9 mph - 0.14 in Rain Rain
8:54 AM 52.0 °F - 52.0 °F 100% 29.97 in 1.2 mi NNE 6.9 mph - 0.17 in Rain Rain
9:22 AM 52.0 °F - 52.0 °F 100% 29.96 in 1.8 mi ENE 8.1 mph - 0.11 in Rain Rain
9:54 AM 52.0 °F - 52.0 °F 100% 29.96 in 1.2 mi East 6.9 mph - 0.20 in Rain Rain
10:38 AM 52.0 °F - 51.1 °F 97% 29.95 in 0.8 mi Variable 5.8 mph 18.4 mph 0.14 in Rain Heavy Rain
10:45 AM 52.0 °F - 51.1 °F 97% 29.95 in 2.0 mi ENE 10.4 mph - 0.14 in Rain Light Rain
10:54 AM 52.0 °F - 51.1 °F 97% 29.94 in 2.0 mi Variable 6.9 mph 16.1 mph 0.15 in Rain Rain
11:06 AM 51.1 °F - 50.0 °F 96% 29.94 in 3.0 mi NE 6.9 mph - 0.01 in Rain Light Rain
11:14 AM 51.1 °F - 50.0 °F 96% 29.94 in 5.0 mi NE 9.2 mph - 0.01 in Rain Light Rain
11:54 AM 51.1 °F - 48.9 °F 92% 29.90 in 3.0 mi ENE 8.1 mph 19.6 mph 0.07 in Rain Light Rain
12:41 PM 48.9 °F - 48.0 °F 97% 29.85 in 1.8 mi ENE 9.2 mph 20.7 mph 0.06 in Rain Heavy Rain
12:49 PM 48.2 °F - 48.2 °F 100% 29.85 in 3.0 mi Variable 5.8 mph 18.4 mph 0.06 in Rain Light Rain
12:54 PM 48.9 °F - 48.0 °F 97% 29.85 in 4.0 mi ENE 11.5 mph 18.4 mph 0.07 in Rain Light Rain
1:06 PM 48.9 °F - 48.0 °F 97% 29.85 in 2.5 mi Variable 6.9 mph - 0.02 in Rain Light Rain
1:25 PM 48.9 °F - 48.0 °F 97% 29.82 in 4.0 mi ENE 8.1 mph - 0.02 in Rain Light Rain
1:54 PM 48.9 °F - 48.0 °F 97% 29.79 in 4.0 mi East 10.4 mph 16.1 mph 0.02 in   Overcast
2:48 PM 48.2 °F - 46.4 °F 93% 29.77 in 1.8 mi ENE 10.4 mph 21.9 mph 0.02 in Rain Rain
2:54 PM 48.0 °F - 46.9 °F 96% 29.77 in 1.8 mi ENE 11.5 mph 21.9 mph 0.02 in Rain Rain
3:04 PM 48.0 °F - 46.9 °F 96% 29.76 in 2.0 mi ENE 11.5 mph 25.3 mph 0.01 in Rain Light Rain
3:23 PM 46.9 °F - 45.0 °F 93% 29.77 in 4.0 mi NNE 10.4 mph 25.3 mph 0.03 in Rain Light Rain
3:42 PM 45.0 °F 38.9 °F 44.1 °F 97% 29.76 in 2.0 mi NE 12.7 mph 27.6 mph 0.07 in Rain Rain
3:50 PM 44.6 °F 37.4 °F 42.8 °F 93% 29.77 in 1.5 mi NE 16.1 mph 28.8 mph 0.12 in Rain Heavy Rain
3:54 PM 44.1 °F 36.5 °F 43.0 °F 96% 29.77 in 1.2 mi NNE 17.3 mph 26.5 mph 0.16 in Rain Heavy Rain
4:07 PM 45.0 °F 37.9 °F 43.0 °F 93% 29.91 in 2.0 mi West 16.1 mph 27.6 mph 0.07 in Rain Heavy Rain
4:09 PM 45.0 °F 38.9 °F 43.0 °F 93% 29.89 in 1.8 mi WNW 12.7 mph 27.6 mph 0.10 in Rain Heavy Rain
4:14 PM 45.0 °F 40.6 °F 43.0 °F 93% 29.87 in 0.8 mi NW 8.1 mph 27.6 mph 0.18 in Rain Heavy Rain
4:26 PM 45.0 °F 39.3 °F 43.0 °F 93% 29.88 in 2.0 mi NNW 11.5 mph - 0.22 in Rain Rain
4:32 PM 44.1 °F 36.2 °F 42.1 °F 93% 29.85 in 2.0 mi North 18.4 mph 26.5 mph 0.25 in Rain Heavy Rain
4:44 PM 43.0 °F 35.1 °F 41.0 °F 93% 29.89 in 3.0 mi NNE 17.3 mph 34.5 mph 0.27 in Rain Rain
4:54 PM 43.0 °F 35.7 °F 41.0 °F 93% 29.89 in 3.0 mi NNE 15.0 mph 20.7 mph 0.31 in Rain Rain
5:02 PM 43.0 °F 36.0 °F 41.0 °F 93% 29.88 in 2.0 mi NNE 13.8 mph 21.9 mph 0.03 in Rain Heavy Rain
5:13 PM 43.0 °F 36.0 °F 41.0 °F 93% 29.87 in 4.0 mi NNE 13.8 mph 24.2 mph 0.04 in Rain Light Rain
5:54 PM 42.1 °F 34.9 °F 41.0 °F 96% 29.83 in 3.0 mi NNE 13.8 mph 20.7 mph 0.14 in Rain Heavy Rain
6:08 PM 43.0 °F 36.0 °F 41.0 °F 93% 29.83 in 6.0 mi NE 13.8 mph 25.3 mph 0.02 in Rain Light Rain
6:38 PM 43.0 °F 36.4 °F 41.0 °F 93% 29.86 in 10.0 mi NE 12.7 mph 19.6 mph 0.02 in   Overcast
6:54 PM 43.0 °F 36.8 °F 41.0 °F 93% 29.89 in 10.0 mi NE 11.5 mph 23.0 mph 0.02 in   Overcast
7:14 PM 43.0 °F 36.4 °F 39.9 °F 89% 29.90 in 8.0 mi NNE 12.7 mph 24.2 mph 0.00 in Rain Light Rain
7:54 PM 42.1 °F 34.9 °F 39.9 °F 92% 29.97 in 10.0 mi NNE 13.8 mph 19.6 mph 0.01 in Rain Light Rain
8:54 PM 39.0 °F 30.6 °F 37.0 °F 93% 30.06 in 4.0 mi NE 15.0 mph 31.1 mph 0.12 in Rain Heavy Rain
9:27 PM 37.9 °F 32.7 °F 37.0 °F 97% 30.11 in 9.0 mi NNE 6.9 mph - 0.05 in Rain Light Rain
9:54 PM 37.9 °F 30.0 °F 37.0 °F 97% 30.16 in 5.0 mi North 12.7 mph - 0.10 in Rain Rain
10:13 PM 37.9 °F 30.0 °F 37.0 °F 97% 30.16 in 5.0 mi NNE 12.7 mph 20.7 mph 0.03 in Rain Rain
10:54 PM 37.9 °F 30.9 °F 37.0 °F 97% 30.16 in 10.0 mi NNE 10.4 mph - 0.06 in Rain Light Rain
11:01 PM 37.9 °F 33.5 °F 37.0 °F 97% 30.15 in 10.0 mi NNE 5.8 mph - 0.00 in Rain Light Rain
11:10 PM 37.9 °F 32.1 °F 37.0 °F 97% 30.15 in 10.0 mi North 8.1 mph - 0.00 in Rain Light Rain
11:20 PM 37.0 °F 30.4 °F 37.0 °F 100% 30.18 in 10.0 mi North 9.2 mph - 0.00 in   Overcast
11:36 PM 37.0 °F 29.8 °F 36.0 °F 96% 30.17 in 10.0 mi NNE 10.4 mph - 0.00 in   Scattered Clouds
11:54 PM 36.0 °F 29.0 °F 35.1 °F 97% 30.20 in 10.0 mi NNE 9.2 mph - 0.00 in   Scattered Clouds